Weather Roundup
Issued by NWS Corpus Christi, TX

Home | Current Version | Previous Version | Text Only | Print | Product List | Glossary On
Versions: 1 2 3 4 5 6 7 8 9 10 11 12 13 14 15 16 17 18 19 20 21 22 23 24 25 26 27 28 29 30 31 32 33 34 35 36 37 38 39 40 41 42 43 44 45 46 47 48 49 50
578
ASUS44 KCRP 261910
HRRCRP

SOUTH TEXAS REGIONAL WEATHER ROUNDUP
NATIONAL WEATHER SERVICE CORPUS CHRISTI TX
200 PM CDT THU APR 26 2018


TXZ229>244-262000-
...CORPUS CHRISTI AREA OBSERVATIONS...

CITY           SKY/WX    TMP DP  RH WIND       PRES   REMARKS
CORPUS CHRISTI MOSUNNY   74  51  44 E6        30.01F
NAS CORPUS CHR MOSUNNY   74  55  51 NE9       30.01F
ROCKPORT       SUNNY     69  51  52 VRB5      30.01F
KINGSVILLE ARP PTSUNNY   74  55  50 NE6       30.01F
KINGSVILLE NAS PTSUNNY   73  52  47 E8        30.01F
ALICE          SUNNY     73  49  42 E5        30.01F
$$

...VICTORIA AREA OBSERVATIONS...

CITY           SKY/WX    TMP DP  RH WIND       PRES   REMARKS
PORT LAVACA    MOSUNNY   70  51  51 NE6       30.01F
VICTORIA       SUNNY     74  46  36 CALM      30.01F
BEEVILLE       FAIR      71  48  44 NE6       30.01F
PLEASANTON     MOSUNNY   72  51  46 E5        30.03F
SAN ANTONIO    MOSUNNY   71  43  36 VRB5      30.02F
$$

...LAREDO AREA OBSERVATIONS...

CITY           SKY/WX    TMP DP  RH WIND       PRES   REMARKS
LAREDO         SUNNY     71  59  65 CALM      30.02F
COTULLA        CLOUDY    73  52  47 VRB3      30.01F
DEL RIO        SUNNY     76  52  43 S8        29.97F
MCALLEN        CLOUDY    77  63  61 E6        30.01F
HEBBRONVILLE   CLOUDY    71  55  56 S5        30.02F
$$

...OTHER TEXAS OBSERVATIONS...

CITY           SKY/WX    TMP DP  RH WIND       PRES   REMARKS
BROWNSVILLE    CLOUDY    78  65  63 NE13      30.00F
HOUSTON        FAIR      73  48  41 N9G17     29.99F
COL. STATION   SUNNY     71  47  42 VRB6      30.00F
AUSTIN         SUNNY     71  48  43 NE5       30.01F
WACO           SUNNY     73  43  33 CALM      30.01F
FORT WORTH     MOSUNNY   68  44  42 VRB3      29.99F
WICHITA FALLS  SUNNY     69  44  40 VRB3      30.00F
LUBBOCK        MOSUNNY   75  28  17 SW8G23    29.98F
EL PASO        PTSUNNY   79  35  20 W5        30.02F
$$

...MARINE OBSERVATIONS...

STATION/POSITION TIME  SKY/WX   TEMP    WIND        PRES    VSBY  WAVE   SWELL
                                AIR SEA DIR/SP/G                  HT/PER HT/PER
                 (UTC)          (F)     (DEG/KT/KT) (MB)    (MI)  (FT/S) (FT/S)
PORT ARANSAS     1900            65 73   60/  8/  9 1016.4F
BUOY 90 E PORT A 1850            66 74   30/ 12/ 14 1016.1F         3/ 5   2/ 5
BUOY 200 E PT IS 1850            74 77   20/ 12/ 14 1014.4F         1/ 2
BUOY 15 E GALVES NOT AVBL
$$




USA.gov is the U.S. government's official web portal to all federal, state and local government web resources and services.